Regional Weather Roundup
Issued by NWS Cleveland, OH

Home | Current Version | Previous Version | Graphics & Text | Print | Product List | Glossary On
Versions: 1 2 3 4 5 6 7 8 9 10 11 12 13 14 15 16 17 18 19 20 21 22 23 24 25 26 27 28 29 30 31 32 33 34 35 36 37 38 39 40 41 42 43 44 45 46 47 48 49 50
000
ASUS41 KCLE 271802
RWRCLE
OHIO REGIONAL WEATHER ROUNDUP
NATIONAL WEATHER SERVICE CLEVELAND, OH
200 PM EDT WED JUL 27 2016

NOTE: "FAIR" INDICATES FEW OR NO CLOUDS BELOW 12,000 FEET WITH NO
SIGNIFICANT WEATHER AND/OR OBSTRUCTIONS TO VISIBILITY.

OHZ001>008-015>018-024>027-034-035-043-044-271900-
   NORTHWEST OHIO

CITY           SKY/WX    TMP DP  RH WIND       PRES   REMARKS
DEFIANCE       MOSUNNY   87  63  44 S5        30.01F
FINDLAY        SUNNY     88  57  34 VRB7      30.00F
TOLEDO EXPRESS SUNNY     87  59  38 W6        30.00F
TOLEDO EXEC    PTSUNNY   87  60  40 VRB3      30.00F
LIMA           MOSUNNY   87  65  47 VRB5      30.01F
$$

OHZ009>014-019>023-028>033-038-089-271900-
   NORTHEAST OHIO

CITY           SKY/WX    TMP DP  RH WIND       PRES   REMARKS
CLE-HOPKINS    MOSUNNY   89  57  33 N10       30.02F
CLE-LAKEFRONT  SUNNY     83  65  54 NW9       29.99F
CUY CO. ARPT   MOSUNNY  N/A N/A N/A E8        30.01F
LORAIN-ELYRIA  SUNNY     86  59  39 VRB6      30.01F
ASHTABULA      SUNNY     84  61  45 VRB3      30.01F
AKRON-CANTON   MOSUNNY   87  56  34 NE6       30.02F
WOOSTER        SUNNY     85  55  35 VRB3      30.02F
MANSFIELD      PTSUNNY   86  59  39 NE5       30.02F
YOUNGSTOWN     MOSUNNY   85  59  41 NW5       30.02F
$$

OHZ042-051>053-060>062-070>072-077>081-271900-
  SOUTHWEST OHIO

CITY           SKY/WX    TMP DP  RH WIND       PRES   REMARKS
CINC-COVINGTON PTSUNNY   86  73  65 VRB6      30.01S HX  93
CINC-LUNKEN    PTSUNNY   87  74  64 SW7       29.98F HX  95
HAMILTON       MOSUNNY   90  70  51 VRB5      30.00F HX  95
DAYTON         MOSUNNY   86  67  52 W7        30.02F
WRIGHT-PAT AFB NOT AVBL
DAYTON GENERAL SUNNY     89  66  46 VRB3      30.00F HX  91
WILMINGTON     PTSUNNY   86  72  62 CALM      30.00F HX  92
$$

OHZ036-037-039>041-045>050-054>059-063>069-073>076-082>088-271900-
  CENTRAL AND SOUTHEAST OHIO

CITY           SKY/WX    TMP DP  RH WIND       PRES   REMARKS
COLUMBUS       MOSUNNY   87  66  49 VRB3      29.99F
OSU AIRPORT    MOSUNNY   87  64  46 CALM      30.00F
BOLTON FIELD     N/A     88  68  51 MISG        N/A  HX  91
RICKENBACK AFB MOSUNNY   86  69  56 SW8       29.98F HX  91
NEWARK         MOSUNNY   89  66  46 NW6       29.99F HX  91
MARION         SUNNY     88  57  34 CALM      30.02S
LANCASTER      PTSUNNY   86  69  56 S5        30.00F HX  90
ZANESVILLE     PTSUNNY   91  69  48 NW5       29.99F HX  96
NEW PHILLY     PTSUNNY   90  59  35 VRB3      30.00F
$$




USA.gov is the U.S. government's official web portal to all federal, state and local government web resources and services.